Tracking 28790 objects as of 19-Apr-2024
HD Live streaming from Space Station
objects crossing your sky now

CZ-4 DEB

Track CZ-4 DEB now!
10-day predictions


NORAD ID: 26333
Int'l Code: 1999-057HS
Perigee: 602.5 km
Apogee: 671.6 km
Inclination: 98.2 °
Period: 97.3 minutes
Semi major axis: 7008 km
RCS: 0.03 m2 (small)
Launch date: October 14, 1999
Source: People's Republic of China (PRC)
Launch site: Taiyaun Space Center, China (TSC)

Note: This is SATELLITE DEBRIS
Your satellite tracking list
Your tracking list is empty




NASA's NSSDC Master Catalog

Two Line Element Set (TLE):
1 26333U 99057HS  24110.07556928  .00030642  00000-0  39760-2 0  9999
2 26333  98.1949 155.0366 0049298  91.6487 269.0371 14.79825190277833
Source of the keplerian elements: AFSPC